Doha, Qatar

5:24 PM AST on February 22, 2017 (GMT +0300)
Doha International

Weather History for OTBD - February, 2013

Change the Weather History Date:

Wednesday, February 20, 2013

  Actual Average Record
Temperature  
Mean Temperature 70 °F -  
Max Temperature 76 °F 78 °F 92 °F (2015)
Min Temperature 65 °F 60 °F 54 °F (2017)
Cooling Degree Days 6    
Growing Degree Days 20 (Base 50)    
Moisture  
Dew Point 57 °F    
Average Humidity 63    
Maximum Humidity 78    
Minimum Humidity 44    
Precipitation  
Precipitation 0.00 in 0.02 in - ()
Sea Level Pressure  
Sea Level Pressure 30.01 in    
Wind  
Wind Speed 9 mph ()    
Max Wind Speed 17 mph    
Max Gust Speed -    
Visibility 6.9 miles    
Events Rain    
Averages and records for this station are not official NWS values.
T = Trace of Precipitation, MM = Missing Value Source: Averaged Metar Reports

Daily Weather History Graph

Daily Weather History Graph

Search for Another Location

Airport or City:

Trip Planner

Search our weather history database for the weather conditions in past years. The results will help you decide how hot, cold, wet, or windy it might be!

Date:

Astronomy

Feb. 20, 2013 Rise Set
Actual Time 6:04 AM AST 5:30 PM AST
Civil Twilight 5:41 AM AST 5:53 PM AST
Nautical Twilight 5:14 AM AST 6:20 PM AST
Astronomical Twilight 4:47 AM AST 6:47 PM AST
Moon 12:49 PM AST (2/20) 1:48 AM AST (2/20)
Length of Visible Light 12h 12m
Length of Day
11h 26m
Waxing Gibbous, 73% of the Moon is Illuminated
Feb 20
Waxing Gibbous
Feb 25
Full
Mar 5
Last Quarter
Mar 11
New
Mar 19
First Quarter

Hourly Weather History & Observations

Time (AST) Temp. Dew Point Humidity Pressure Visibility Wind Dir Wind Speed Gust Speed Precip Events Conditions
12:00 AM 68.0 °F 59.0 °F 73% 29.95 in - North 4.6 mph - N/A   Clear
12:30 AM 66.2 °F 59.0 °F 78% 29.95 in - NNW 8.1 mph - N/A   Clear
1:00 AM 66.2 °F 57.2 °F 73% 29.95 in - NNW 8.1 mph - N/A   Clear
1:30 AM 66.2 °F 57.2 °F 73% 29.95 in - NNW 8.1 mph - N/A   Clear
2:00 AM 66.2 °F 57.2 °F 73% 29.95 in - NW 5.8 mph - N/A   Clear
3:00 AM 66 °F 56 °F 62% 29.94 in 6 mi North 10.4 mph - -   Partly Cloudy
3:30 AM 66.2 °F 57.2 °F 73% 29.92 in - NNW 13.8 mph - N/A   Clear
4:00 AM 66.2 °F 59.0 °F 78% 29.95 in - North 15.0 mph - N/A   Clear
4:30 AM 68.0 °F 57.2 °F 68% 29.95 in - North 17.3 mph - N/A   Clear
5:00 AM 68.0 °F 59.0 °F 73% 29.98 in - NNW 11.5 mph - N/A   Clear
5:30 AM 68.0 °F 57.2 °F 68% 29.98 in - North 15.0 mph - N/A   Clear
6:00 AM 68.0 °F 57.2 °F 68% 29.98 in - North 11.5 mph - N/A   Clear
6:30 AM 69.8 °F 59.0 °F 68% 30.01 in 6.2 mi North 11.5 mph - N/A   Scattered Clouds
7:00 AM 69.8 °F 57.2 °F 64% 30.01 in 6.2 mi North 13.8 mph - N/A   Scattered Clouds
7:30 AM 69.8 °F 59.0 °F 68% 30.04 in 6.2 mi North 12.7 mph - N/A   Scattered Clouds
8:00 AM 71.6 °F 59.0 °F 64% 30.04 in 6.2 mi North 11.5 mph - N/A   Scattered Clouds
9:00 AM 72 °F 60 °F 56% 30.09 in 10 mi NNE 11.5 mph - -   Scattered Clouds
9:00 AM 71.6 °F 59.0 °F 64% 30.09 in 6.2 mi NNE 11.5 mph - N/A   Scattered Clouds
9:30 AM 71.6 °F 59.0 °F 64% 30.06 in 6.2 mi NNE 10.4 mph - N/A Rain Light Rain
10:00 AM 73.4 °F 60.8 °F 65% 30.06 in - ENE 10.4 mph - N/A   Clear
10:30 AM 73.4 °F 59.0 °F 61% 30.04 in - NE 11.5 mph - N/A   Clear
11:00 AM 75.2 °F 57.2 °F 53% 30.04 in - ENE 12.7 mph - N/A   Clear
12:00 PM 77.0 °F 59.0 °F 54% 30.01 in - ENE 10.4 mph - N/A   Clear
12:30 PM 75.2 °F 57.2 °F 53% 30.01 in - NE 8.1 mph - N/A   Clear
1:00 PM 75.2 °F 57.2 °F 53% 30.01 in - North 9.2 mph - N/A   Clear
6:30 PM 71.6 °F 57.2 °F 60% 30.01 in - North 11.5 mph - N/A   Clear
7:00 PM 71.6 °F 55.4 °F 57% 30.04 in - NNW 10.4 mph - N/A   Clear
7:30 PM 69.8 °F 55.4 °F 60% 30.04 in - North 11.5 mph - N/A   Clear
8:00 PM 69.8 °F 53.6 °F 56% 30.04 in - NNW 11.5 mph - N/A   Clear
8:30 PM 69.8 °F 51.8 °F 53% 30.06 in - NNW 11.5 mph - N/A   Clear
9:00 PM 69 °F 52 °F 44% 30.06 in 9 mi NNW 10.4 mph - -  
9:00 PM 68.0 °F 51.8 °F 56% 30.06 in - NNW 10.4 mph - N/A   Clear
10:00 PM 68.0 °F 51.8 °F 56% 30.04 in - NNW 10.4 mph - N/A   Clear
11:00 PM 68.0 °F 53.6 °F 60% 30.04 in - NW 8.1 mph - N/A   Clear